Theta_e
334 330 326 314 302 300 296 299 304 306 307 311 315 313 316 318 315 309 329 337 339 340 344 345 348 350 349 349 348 345 342 341 339 340 342 344 345 344 341 340 341 339 338 339 336 337 337 337 337
330 330 317 309 299 293 294 301 305 309 312 315 315 315 314 315 324 325 326 338 339 340 342 344 345 349 349 347 346 342 340 340 340 340 341 344 343 342 340 339 339 338 337 337 336 336 336 336 335
327 325 309 304 298 292 295 302 307 310 313 313 313 316 316 317 325 326 331 336 339 339 341 342 344 348 348 346 345 343 340 339 341 340 340 343 341 342 340 338 338 338 336 336 336 335 335 334 334
321 316 311 301 297 297 300 306 310 309 311 314 313 313 320 325 327 331 332 336 338 339 341 341 345 348 347 346 345 344 343 341 341 340 341 342 341 342 340 338 337 337 336 335 335 335 335 334 334
318 311 302 300 302 299 302 309 311 309 309 310 310 312 317 326 331 332 330 333 336 337 340 342 344 346 346 346 345 344 342 341 341 340 340 342 342 342 340 338 336 335 335 335 335 335 334 334 333
310 308 299 296 304 306 304 307 309 308 309 309 307 311 317 328 329 330 331 329 337 336 339 340 337 340 343 344 344 342 342 341 340 339 338 341 342 341 340 337 336 334 334 334 334 334 334 333 332
308 303 299 300 301 306 305 308 306 307 307 307 310 308 316 323 329 330 330 331 334 337 337 337 338 337 336 339 340 340 340 339 339 338 338 337 337 338 338 337 337 335 334 334 333 333 332 332 330
309 305 300 299 299 302 306 308 309 309 309 314 313 309 312 323 329 331 329 328 328 335 335 334 335 337 337 337 333 335 336 336 336 335 332 331 331 333 333 332 336 336 334 333 333 332 332 331 329
313 300 294 298 301 303 305 305 308 311 311 311 315 317 321 329 329 327 325 324 324 327 332 334 334 335 336 336 332 331 331 332 332 330 327 326 327 328 328 329 333 335 335 334 332 331 331 330 328
306 299 300 303 304 305 308 304 306 306 306 308 316 324 328 327 324 322 322 322 321 322 324 334 334 334 335 338 332 332 332 330 330 328 326 327 325 325 328 325 328 331 330 332 332 332 329 325 320
307 302 307 308 309 312 311 309 307 304 302 307 311 320 324 323 323 322 322 323 321 321 322 328 330 335 336 335 333 330 331 330 329 327 326 326 323 321 323 321 322 321 321 323 325 323 323 320 319
302 307 308 310 310 311 309 312 308 304 305 309 311 323 323 322 322 322 322 323 322 320 321 323 329 332 335 334 333 329 329 329 328 328 327 326 322 321 320 319 319 319 320 319 318 318 318 319 320
301 305 308 310 309 308 311 308 307 308 312 311 316 323 322 321 322 323 324 325 324 321 319 320 324 328 330 332 331 329 328 327 327 329 328 326 323 321 321 320 318 319 319 318 318 318 319 319 319
302 305 307 308 307 307 307 307 307 308 311 312 309 314 320 321 321 322 325 325 323 322 319 320 321 323 327 327 328 327 328 326 325 326 328 326 324 323 322 320 319 318 318 317 318 317 317 316 317
305 299 301 302 305 304 307 302 304 309 311 311 311 307 309 321 322 322 325 326 326 320 320 320 320 320 322 326 325 325 323 324 324 324 325 326 325 323 323 321 319 318 317 317 316 315 316 315 315
298 297 292 300 303 304 302 295 304 307 306 307 309 308 308 310 320 323 325 326 327 320 317 320 323 319 320 322 324 322 321 321 323 323 323 325 325 323 321 320 319 320 318 316 315 315 315 315 314
293 287 291 295 303 301 300 295 303 307 307 303 302 305 307 308 311 319 324 326 327 324 318 319 322 319 320 320 323 322 320 320 320 320 321 323 325 324 321 318 318 319 318 317 316 315 314 313 314
289 289 292 291 296 299 298 296 300 304 304 302 302 303 304 307 309 314 320 325 327 327 322 320 321 321 320 321 321 321 320 319 319 319 320 322 325 324 321 319 318 318 316 316 315 315 314 314 314
294 291 290 293 299 296 293 295 298 301 301 301 302 302 302 305 310 312 316 321 324 326 325 321 320 321 322 321 319 320 319 320 319 320 320 321 323 323 322 320 319 319 316 316 315 315 314 314 314
295 292 291 294 298 294 294 293 296 300 301 301 301 301 302 303 306 308 313 317 321 324 326 325 321 321 322 323 322 321 320 321 321 321 320 321 320 322 322 321 321 321 319 317 315 315 313 314 315
295 292 292 291 295 296 293 292 294 297 300 301 302 302 303 303 304 305 307 315 320 322 324 326 325 322 322 322 322 319 318 317 318 320 320 320 320 321 322 322 322 321 321 319 317 316 316 314 314
290 296 295 293 290 285 293 284 290 293 296 299 301 301 303 303 305 307 308 311 317 321 324 327 327 325 322 322 321 320 318 317 319 320 321 321 321 320 322 322 322 322 322 321 320 319 319 316 314
292 297 293 293 290 287 289 286 288 293 293 296 299 299 300 302 305 307 308 309 313 320 323 325 327 326 325 322 322 320 319 319 319 320 320 321 321 321 321 322 322 322 322 322 321 320 319 319 318
298 293 293 291 289 284 288 286 287 290 294 297 299 299 301 302 302 304 308 310 311 315 321 324 325 326 326 324 323 321 320 319 319 318 319 320 321 321 321 321 321 322 322 323 322 322 320 320 320
294 290 283 281 281 280 287 285 289 294 297 296 297 297 299 300 301 302 303 303 306 307 317 322 324 324 326 326 324 323 322 322 320 319 319 319 319 320 321 322 320 321 323 324 324 323 322 320 320
292 291 281 272 275 278 284 283 288 297 300 301 301 302 302 300 300 302 303 305 306 306 308 318 321 322 325 326 326 325 325 324 323 322 321 321 321 321 324 323 323 323 323 323 324 324 323 323 322
290 287 292 281 278 276 281 287 294 296 297 297 297 298 296 296 297 301 304 304 305 306 308 312 319 321 323 324 326 326 327 325 324 324 324 323 323 324 324 325 323 323 323 324 324 323 323 323 323
292 294 285 286 277 276 279 280 285 291 294 296 295 295 295 296 296 297 298 300 302 303 306 306 309 317 321 323 324 325 326 327 326 326 324 324 324 325 325 325 325 324 324 324 324 324 324 323 323
289 288 287 286 282 276 275 280 291 293 293 293 294 295 295 294 296 296 297 298 298 298 299 300 303 306 312 321 323 323 324 325 326 326 325 325 325 325 325 326 326 325 324 325 325 325 324 322 321
293 290 289 282 280 283 280 281 294 295 295 295 294 295 296 296 296 296 296 296 297 297 298 298 299 301 304 310 318 320 323 324 325 325 325 325 325 326 326 326 325 325 324 324 324 324 323 321 319
Wind_Speed
15 14 3 5 6 6 2 1 5 3 4 2 3 7 8 4 3 5 1 12 13 10 8 7 13 13 14 14 14 14 13 13 13 14 12 11 13 17 18 16 11 16 15 15 15 15 15 14 13
10 9 5 2 6 4 4 4 8 4 5 6 4 6 3 3 3 6 5 12 12 10 7 7 12 15 14 13 14 13 12 12 13 13 11 13 14 15 16 16 12 14 14 14 15 15 14 12 11
15 3 3 3 2 4 3 3 7 3 4 2 3 5 4 3 4 6 6 12 12 9 7 8 12 16 15 14 13 12 12 11 11 11 10 14 14 13 16 16 12 13 13 14 13 13 13 11 10
5 6 5 4 0 3 7 7 7 5 4 4 6 7 4 2 8 8 8 13 13 9 8 8 12 15 15 14 13 12 11 11 10 10 8 11 14 14 15 15 13 12 14 13 13 12 11 10 8
5 3 3 4 4 4 4 8 8 5 5 2 3 6 5 3 7 9 9 12 11 9 7 7 9 13 14 14 13 12 11 10 10 10 9 9 14 15 15 14 14 11 12 12 12 11 10 9 7
5 3 4 3 4 3 2 4 7 6 6 4 2 7 4 6 6 7 8 9 12 10 8 7 7 8 12 14 13 12 12 11 10 9 5 6 14 12 13 14 13 11 11 11 11 10 9 8 5
2 3 4 5 3 2 3 1 3 6 7 3 4 5 3 5 7 6 7 9 12 10 9 6 6 6 7 10 12 11 12 11 10 8 7 8 9 11 10 10 13 11 10 10 10 9 8 7 4
3 4 3 4 4 5 4 4 4 6 1 0 2 5 5 6 9 7 3 7 10 10 9 8 6 7 6 5 10 11 10 11 10 9 7 8 8 9 9 8 9 10 9 9 8 8 7 5 3
3 3 2 4 5 3 3 1 3 4 4 3 3 5 3 14 9 6 5 5 5 7 9 10 8 7 7 6 6 8 10 10 9 7 8 6 4 5 5 7 9 8 8 7 7 7 6 5 4
4 3 6 5 5 2 4 2 3 3 2 1 5 6 9 9 6 8 8 7 6 6 7 11 11 10 8 8 6 5 6 4 5 5 6 4 5 5 5 6 8 8 7 6 6 6 6 5 2
4 5 6 11 3 5 2 7 3 4 2 4 7 11 9 6 7 7 8 6 8 6 4 8 7 9 10 8 6 3 3 4 4 6 5 5 4 4 4 3 3 3 5 3 4 3 3 4 3
3 7 5 7 3 4 2 3 7 1 5 2 4 13 9 11 12 11 9 9 8 8 8 8 8 8 9 6 7 6 4 5 4 6 7 4 3 4 4 3 4 4 4 4 4 3 4 5 5
4 6 6 8 8 6 3 2 3 8 9 3 7 13 12 9 9 8 8 9 8 10 9 9 8 7 8 9 7 7 7 6 7 6 7 5 5 5 4 4 4 5 4 4 4 4 3 4 3
3 5 8 8 8 6 5 6 1 5 6 9 6 10 11 14 14 8 11 14 13 13 13 12 10 8 8 8 9 8 7 7 6 6 7 7 5 5 5 4 5 5 4 4 4 4 4 4 3
6 5 7 4 4 4 6 6 7 9 8 10 11 9 10 15 13 16 16 15 14 13 14 14 13 10 10 10 9 7 5 6 5 5 7 8 7 6 6 5 4 5 5 6 4 3 3 3 3
3 2 5 2 2 6 2 15 6 8 6 11 12 9 10 11 14 17 15 15 12 11 15 15 13 13 12 10 8 5 5 5 6 5 5 8 8 7 6 5 5 5 4 4 3 3 3 3 4
2 3 6 8 8 5 9 3 10 13 13 9 10 10 9 10 9 13 16 17 16 13 15 15 15 15 15 11 9 8 7 6 6 5 5 7 8 8 6 5 5 6 4 4 4 4 4 4 4
8 7 7 7 4 10 17 20 9 10 10 10 9 9 8 8 11 12 14 17 16 15 15 14 13 15 13 9 8 6 6 5 6 7 7 9 8 9 7 5 6 5 4 4 3 5 4 4 5
8 8 9 6 13 11 9 16 15 11 8 10 11 9 9 10 9 9 10 12 14 13 14 16 16 15 11 10 9 10 11 9 7 8 11 11 10 10 10 7 6 6 7 8 6 5 6 4 3
12 12 15 5 8 7 8 13 10 10 9 9 11 9 9 8 9 9 9 11 13 17 18 17 17 15 12 10 10 8 9 9 9 8 9 12 12 12 12 11 10 10 7 8 8 6 3 4 5
17 19 14 6 6 4 2 11 7 5 7 7 8 7 7 10 11 10 8 11 14 15 16 18 19 18 15 15 7 2 2 2 5 9 10 13 14 13 15 14 12 11 9 9 9 9 10 7 4
19 11 7 6 4 6 2 11 9 4 10 14 13 11 12 11 11 10 10 8 12 15 16 17 18 19 17 16 12 16 13 12 13 13 11 12 14 15 16 16 14 13 10 11 10 9 9 6 7
12 8 7 6 5 1 12 6 6 6 11 17 11 11 11 12 14 16 15 12 12 15 16 16 17 17 18 19 19 14 15 12 8 9 12 14 13 16 16 16 15 14 10 11 12 11 11 9 6
4 4 5 4 4 11 18 9 12 12 18 17 12 10 12 12 12 10 13 13 15 12 15 15 16 17 18 20 21 20 20 17 11 11 11 11 11 11 17 17 15 14 13 14 12 14 13 11 9
8 8 5 5 8 13 8 6 20 13 19 11 12 11 11 10 7 7 8 8 9 9 13 15 17 19 18 20 21 23 22 20 18 14 12 12 11 10 15 16 15 13 15 15 13 13 13 12 11
15 16 8 9 6 6 4 11 15 17 22 17 19 20 15 8 8 9 8 8 7 7 7 9 15 17 16 19 20 19 20 14 15 17 14 13 13 13 14 15 17 17 16 16 14 11 11 12 11
9 13 13 5 2 3 4 6 9 9 17 11 9 2 3 3 6 8 7 5 5 6 6 8 9 12 15 17 18 19 19 21 18 20 16 13 14 12 14 15 18 17 16 16 16 12 14 13 13
9 9 6 5 6 9 4 4 9 4 7 6 6 8 3 4 6 5 6 6 6 7 7 5 7 10 14 16 17 17 19 20 19 17 17 16 15 15 14 16 18 18 18 17 16 14 14 14 11
6 9 4 4 6 6 1 6 11 15 3 8 7 5 3 1 1 3 4 5 7 7 7 8 7 7 8 13 15 17 16 18 17 17 17 16 16 16 16 18 18 18 18 17 16 17 15 15 13
19 16 14 6 6 4 1 7 2 8 8 7 2 4 6 5 5 5 6 7 8 8 8 8 8 7 7 6 7 10 13 14 15 16 17 16 16 17 15 16 16 17 17 17 18 17 15 15 14
Wind_Direction
314 313 310 31 56 66 77 44 135 73 59 100 61 71 114 69 45 132 236 116 123 126 125 136 122 123 118 111 105 98 107 109 110 114 109 112 99 96 96 93 93 91 93 96 93 89 87 90 91
306 310 17 55 79 82 285 107 96 106 124 105 72 89 55 102 93 130 96 133 125 130 124 128 127 125 120 114 108 115 116 118 120 122 121 100 101 106 106 103 100 99 99 97 94 93 90 88 84
304 279 67 75 87 123 166 129 132 101 70 119 89 58 85 90 111 143 156 130 119 119 119 130 129 127 126 122 120 123 124 124 121 128 135 111 111 110 114 109 98 102 100 101 98 96 93 91 82
335 349 4 78 235 23 118 158 128 108 5 44 114 81 58 352 160 156 139 119 115 119 121 133 134 133 132 132 132 131 126 127 132 128 137 112 111 107 112 109 110 107 107 106 105 101 99 91 73
7 37 13 335 351 128 102 143 141 155 161 179 94 147 110 31 114 133 137 122 119 122 123 129 143 140 138 136 136 132 129 129 131 133 141 103 114 112 113 112 112 111 111 110 108 105 101 91 68
1 70 23 303 3 125 56 110 142 138 147 175 94 115 165 144 119 158 134 131 132 134 130 132 140 144 144 143 140 140 137 133 126 125 129 96 116 116 132 118 117 119 116 116 115 114 108 96 68
77 63 240 292 274 148 157 159 101 162 151 189 170 79 171 151 161 164 146 139 133 134 130 129 133 142 146 147 142 142 137 132 131 125 110 83 87 109 95 114 118 120 121 122 124 121 117 108 84
96 97 290 294 313 318 198 128 129 65 188 124 81 146 195 197 178 155 166 128 133 140 142 146 146 143 141 154 148 148 146 142 142 134 126 117 105 96 105 102 109 127 128 135 135 131 126 126 115
16 52 247 260 20 339 332 43 351 142 95 46 28 113 162 146 154 135 129 116 144 145 155 153 156 157 152 152 165 151 149 145 143 144 147 136 128 128 129 131 125 129 138 145 144 144 148 160 186
112 145 228 231 349 95 359 309 159 85 81 123 60 52 117 135 158 159 161 166 166 175 159 168 164 166 161 164 158 155 147 148 152 163 168 167 163 161 142 139 142 148 152 154 160 165 181 192 216
197 213 264 287 28 21 59 0 328 123 134 211 200 165 158 156 170 174 175 184 178 180 194 164 174 159 162 151 155 165 170 162 169 181 184 194 161 166 152 147 153 161 178 186 171 189 211 211 222
245 277 253 285 359 340 346 325 339 271 233 231 152 164 154 173 181 192 200 194 180 176 195 172 181 166 160 148 168 178 176 182 186 192 195 180 178 164 168 171 180 191 194 202 209 208 222 239 227
221 243 254 294 310 291 310 268 244 295 286 279 123 151 166 184 201 201 206 218 197 193 188 200 176 178 167 163 181 181 196 190 188 190 204 169 186 179 173 194 187 196 199 198 207 215 216 225 254
276 253 251 244 275 290 275 264 131 273 309 313 184 190 181 182 194 197 205 212 211 197 196 187 187 179 180 174 183 191 201 190 183 182 197 187 182 179 188 196 205 209 196 202 198 204 208 217 223
248 292 306 240 274 279 328 276 229 245 257 270 279 210 209 204 182 198 208 210 212 203 192 188 184 187 184 186 182 193 184 187 184 191 190 187 182 190 191 197 201 208 200 202 201 211 185 195 213
9 295 247 267 239 268 228 257 236 249 239 260 266 262 215 224 200 201 200 204 205 196 195 190 190 187 190 190 189 184 186 184 191 186 192 192 190 185 194 192 203 207 199 193 181 202 214 227 229
269 224 230 267 226 257 195 281 242 223 251 250 252 260 248 241 228 204 199 200 197 191 194 194 191 191 189 187 190 188 191 190 188 185 190 197 200 195 188 194 204 200 194 195 195 204 185 208 230
203 216 234 213 230 224 240 256 251 227 226 258 265 272 270 254 235 215 206 201 197 192 188 193 193 195 193 185 187 190 188 197 189 194 194 192 201 203 195 200 201 196 190 202 192 197 209 204 210
185 228 226 219 231 246 236 254 248 241 235 244 258 264 265 264 261 218 211 205 198 191 183 190 193 195 186 197 191 195 205 201 205 202 197 197 197 200 201 208 205 197 200 201 194 187 205 238 216
215 236 250 270 269 210 253 266 244 241 236 220 226 245 261 270 274 258 215 201 200 196 196 189 191 192 201 204 205 210 204 210 208 206 206 203 201 198 201 205 212 208 202 199 196 187 194 215 188
219 218 230 223 323 274 264 274 262 264 261 272 263 261 255 238 252 259 251 210 201 201 198 194 194 192 194 200 193 201 181 215 202 204 205 208 203 203 205 208 210 210 204 206 202 198 201 215 210
213 209 214 192 124 241 73 276 246 252 272 269 270 258 256 254 252 247 246 212 211 212 210 204 196 190 193 188 197 200 209 210 216 211 211 208 206 207 207 210 209 208 207 210 205 201 209 189 210
229 192 199 187 200 82 250 260 279 197 253 257 261 248 243 244 242 246 246 227 210 210 207 205 205 199 190 189 195 205 213 222 223 214 209 207 207 212 212 210 208 210 209 210 206 206 209 205 204
139 104 193 225 168 235 237 215 264 246 255 260 261 244 253 260 257 252 252 240 228 207 208 204 202 205 197 194 199 201 209 218 215 211 207 211 212 210 216 213 210 206 208 211 209 210 210 208 210
166 137 217 225 215 242 205 179 241 261 253 246 253 237 246 252 263 261 257 253 242 211 203 204 205 209 204 203 201 207 209 210 213 213 212 207 215 212 216 209 210 210 211 212 212 213 213 204 205
192 189 192 203 184 229 171 206 244 231 257 247 248 261 261 288 283 285 282 283 262 250 236 215 206 214 210 209 210 213 215 215 218 214 210 214 213 217 209 209 211 214 212 213 212 214 215 212 212
194 200 199 89 27 63 221 288 305 251 260 242 235 349 93 53 15 7 6 6 298 285 264 225 227 224 220 214 215 216 215 215 218 222 223 218 216 216 210 203 207 211 210 213 212 215 215 208 208
195 148 181 193 204 234 233 234 243 330 306 318 122 120 115 63 48 27 24 348 313 312 301 278 238 226 229 225 221 221 218 222 220 225 219 217 219 216 209 205 205 207 208 210 208 215 217 211 209
151 196 167 156 156 189 265 250 220 225 220 121 128 162 114 65 23 288 295 294 298 312 315 303 293 268 253 236 227 227 226 228 230 228 223 216 219 217 214 208 205 206 205 206 210 216 216 210 206
208 203 188 181 184 195 130 268 278 147 144 110 127 353 4 340 267 270 272 298 299 296 304 301 296 286 265 257 239 231 228 226 223 229 227 220 222 222 216 214 211 209 205 203 208 211 210 206 198